Theta_e
303 306 304 301 301 301 303 301 302 300 300 305 304 310 310 304 305 306 306 306 306 307 307 306 305 308 308 306 304 307 309 311 311 309 309 310 311 311 311 317 316 320 318 313
297 299 300 300 300 302 299 299 301 300 302 308 309 308 306 304 305 305 305 306 307 307 306 306 305 307 307 305 304 308 309 311 313 311 311 310 311 310 310 311 313 317 321 314
297 297 296 296 297 301 301 302 303 302 302 306 306 306 306 304 304 304 305 306 307 307 306 306 306 307 305 304 304 304 306 311 311 312 313 311 310 310 309 310 316 319 313 311
296 297 297 298 297 299 302 305 305 304 304 309 306 307 304 305 305 305 305 305 305 306 306 306 306 305 305 304 305 305 309 310 309 309 308 310 311 310 309 311 312 312 310 308
295 295 296 296 298 299 303 305 305 304 306 306 306 306 305 305 303 304 303 304 304 304 304 304 304 304 305 307 307 309 309 311 309 309 309 312 311 310 308 307 308 308 308 308
296 295 295 297 299 299 303 302 302 304 305 305 307 305 304 304 304 303 304 304 304 304 304 304 305 305 307 307 308 309 311 310 310 312 311 313 313 309 308 306 305 306 307 304
297 296 296 298 298 298 302 301 303 305 305 304 304 303 304 304 304 304 303 304 304 304 305 305 305 305 305 306 307 309 310 310 310 310 314 315 308 307 306 306 303 304 303 302
297 297 297 298 297 299 302 302 304 305 309 304 305 305 305 305 305 305 304 305 305 305 305 306 306 307 307 308 309 309 309 309 311 311 311 310 306 305 306 307 305 301 301 300
295 296 297 298 298 299 301 302 302 307 306 306 304 305 305 306 305 306 305 304 304 305 306 308 307 309 309 310 309 309 309 309 311 311 310 313 309 304 303 304 309 300 300 300
295 297 298 298 299 298 300 302 304 308 311 306 305 306 306 305 305 305 305 304 304 305 307 310 309 309 308 311 311 310 310 309 310 310 309 310 304 304 304 307 306 299 299 298
295 297 299 298 300 299 301 302 303 306 310 306 306 305 305 305 305 305 304 304 304 305 309 309 309 309 309 309 309 309 310 310 310 309 308 310 303 303 306 302 300 298 297 296
295 298 298 298 299 298 300 303 302 304 306 305 302 302 302 303 304 306 304 305 304 305 308 309 308 309 310 309 310 307 310 309 311 309 309 303 302 301 299 298 298 296 296 295
296 297 298 297 298 297 300 302 303 303 308 305 304 304 301 301 302 302 304 304 304 305 307 307 308 308 309 309 310 308 306 305 307 306 303 302 300 299 297 296 296 295 295 295
296 297 298 298 297 297 301 302 302 304 304 305 303 301 301 302 302 302 304 304 304 304 306 306 307 307 307 307 308 308 306 305 305 304 302 300 299 297 296 294 293 293 292 292
296 297 297 297 296 298 300 301 301 302 305 304 303 301 302 301 301 302 302 302 303 304 305 306 306 305 305 305 305 308 305 306 305 307 303 302 299 297 296 294 294 293 292 291
294 296 296 296 296 298 300 305 301 301 302 304 304 302 302 302 302 302 302 302 303 303 304 305 304 303 306 305 305 304 302 302 302 301 301 300 297 296 294 294 293 291 290 289
296 296 295 295 295 297 300 301 300 298 302 304 303 303 302 302 302 302 303 302 303 303 303 304 303 302 304 304 305 303 301 300 300 299 298 296 296 294 292 292 290 289 288 287
295 295 295 295 296 298 298 296 296 299 302 303 304 303 303 302 302 302 302 302 302 303 303 302 303 303 303 304 303 301 300 299 298 297 297 296 293 291 290 289 289 289 288 286
294 294 293 295 297 298 298 295 298 300 302 304 305 304 305 303 303 302 302 301 303 301 302 303 303 304 305 304 302 300 300 298 297 297 296 294 292 291 290 290 289 289 287 286
292 294 296 299 296 295 297 299 302 302 301 302 304 304 304 303 303 303 302 301 302 302 302 302 302 304 303 301 301 300 299 299 297 296 295 294 293 291 290 290 289 288 286 285
294 296 296 296 294 297 300 301 300 299 300 301 302 302 303 303 303 303 302 302 300 302 303 302 303 305 303 301 300 299 298 297 297 296 295 294 293 291 290 287 286 285 284 283
295 296 295 295 296 298 301 299 298 299 300 300 302 302 302 303 303 302 301 300 301 304 303 302 304 306 300 300 298 297 297 296 295 294 294 293 291 289 288 286 284 283 282 278
295 296 298 298 296 298 298 297 298 300 298 299 302 303 302 303 301 301 302 302 304 302 302 303 305 302 299 298 295 295 294 294 293 292 290 289 287 286 285 283 280 278 277 276
296 297 295 297 297 296 297 299 301 299 299 301 303 301 302 302 301 301 301 302 302 302 303 304 306 299 297 296 294 294 293 291 289 287 285 284 281 280 279 278 277 276 275 274
295 295 296 296 295 296 295 297 298 297 299 300 302 302 302 302 301 302 300 300 302 302 303 306 304 298 295 294 293 291 288 286 285 284 281 279 278 277 277 276 276 276 274 274
294 295 295 295 297 297 299 299 298 297 299 301 302 302 303 302 302 301 302 302 302 305 305 304 298 295 294 292 291 288 285 283 283 282 279 277 277 277 277 276 277 274 274 274
294 294 295 298 297 297 297 298 297 296 299 303 301 302 301 301 301 301 301 304 305 305 302 300 297 293 292 290 288 285 282 282 282 280 279 278 278 278 277 277 276 275 275 274
Wind_Speed
33 33 73 73 68 60 38 6 5 29 37 7 6 11 12 6 18 14 7 8 8 15 18 15 13 12 8 10 7 5 4 3 5 2 6 1 3 4 4 3 8 8 11 4
27 32 33 45 49 26 18 4 5 24 21 8 13 12 11 11 19 15 11 8 7 15 15 9 10 12 9 10 8 6 6 4 4 7 8 11 1 3 9 9 11 14 6 4
26 30 20 17 15 8 7 5 5 4 3 4 17 17 16 15 13 6 6 7 11 16 15 6 13 14 9 10 5 5 2 4 4 3 1 2 4 4 8 9 7 4 4 3
22 30 21 13 12 12 7 2 6 9 9 9 20 16 16 19 14 8 10 8 14 15 10 10 11 14 12 8 7 7 5 5 5 5 4 5 0 2 5 4 10 5 3 4
18 25 19 7 6 9 4 3 8 10 17 16 17 16 19 20 11 13 13 11 14 12 11 5 16 13 13 8 12 10 5 4 4 4 3 12 4 2 2 2 3 5 2 7
17 24 13 3 3 8 5 7 13 9 14 16 12 14 21 20 14 2 9 14 13 10 9 3 12 8 7 8 11 9 6 3 3 3 7 10 5 3 3 5 6 6 5 6
16 13 8 7 2 4 6 15 10 9 12 15 16 17 17 16 12 11 11 14 10 9 12 11 9 6 6 6 4 3 5 4 1 1 11 5 4 5 4 8 4 5 4 4
13 10 10 5 5 5 4 5 3 7 12 15 19 22 17 16 11 17 17 9 10 13 12 9 9 6 6 7 9 8 4 3 3 3 3 6 6 6 6 7 5 2 3 5
12 10 12 11 8 5 1 2 7 6 11 13 16 16 19 14 14 13 9 8 8 8 6 6 8 6 10 7 7 6 7 3 4 5 8 4 7 3 3 4 5 1 3 6
9 7 6 7 5 4 2 2 6 6 7 7 16 12 16 13 11 8 11 8 6 6 7 7 7 4 6 9 10 8 7 4 7 6 5 6 5 5 7 4 4 2 4 5
10 9 8 8 10 6 5 4 6 5 7 9 9 9 10 9 8 9 13 6 3 6 8 7 3 2 6 4 7 8 7 7 5 5 5 5 4 7 4 4 5 3 4 5
11 9 8 7 9 3 2 4 5 13 6 8 18 18 16 12 9 10 12 2 14 5 5 2 3 3 3 7 6 3 4 3 1 4 3 5 8 9 6 4 4 3 3 4
13 10 8 5 8 3 3 10 17 24 10 10 8 9 14 15 10 4 4 2 3 3 4 2 2 3 4 4 5 6 3 2 3 5 4 6 6 8 6 6 5 3 4 5
12 10 7 6 4 6 8 8 2 13 6 5 7 7 8 8 8 6 6 12 5 6 4 2 2 2 3 2 2 2 2 8 6 4 6 6 6 5 7 6 5 3 5 6
14 10 7 7 8 12 13 13 9 6 1 6 8 16 11 11 13 14 13 10 7 5 3 2 2 3 2 2 1 4 5 4 6 2 10 1 10 6 7 4 3 3 1 2
16 12 10 15 12 8 5 3 9 10 24 8 4 6 7 9 10 11 9 6 3 1 3 3 2 2 4 3 3 4 6 6 7 5 6 8 10 6 4 6 3 4 4 5
16 14 13 5 5 9 5 3 2 5 2 4 6 5 2 6 5 4 4 3 3 2 2 2 3 4 3 1 2 9 9 8 11 13 13 9 9 5 7 7 6 5 5 5
17 15 14 16 15 12 9 10 7 5 3 2 4 4 4 3 3 3 1 2 2 3 1 2 3 4 2 2 8 12 11 11 10 9 4 10 12 11 8 7 6 4 3 3
21 18 13 7 6 3 4 5 8 7 4 3 2 7 4 5 2 3 2 0 2 1 1 2 2 3 3 4 11 13 13 10 11 10 11 12 11 10 9 8 6 4 4 4
18 7 5 3 3 6 5 2 2 3 3 2 3 5 4 6 4 2 2 2 1 2 2 3 2 2 4 4 9 11 11 9 13 13 12 11 10 10 9 8 6 6 6 6
3 3 2 5 3 1 2 2 1 2 3 2 2 7 7 2 4 3 0 2 1 3 3 2 3 3 7 8 11 10 12 13 12 8 9 11 10 10 9 8 8 9 9 8
5 10 7 2 0 1 3 2 2 1 3 2 5 7 5 3 2 3 2 2 3 1 4 2 3 4 11 12 13 11 13 13 10 8 9 10 12 12 12 12 11 11 11 10
6 3 3 2 4 3 1 4 2 4 4 4 5 5 3 3 3 2 1 4 2 4 2 3 1 8 10 12 12 11 13 13 11 10 11 13 13 11 13 13 12 13 12 9
2 2 4 2 2 2 1 3 5 3 4 7 6 4 2 3 2 2 3 1 3 3 3 3 4 10 11 12 12 13 12 11 13 13 14 14 14 14 14 13 14 14 12 10
3 2 3 2 3 4 3 2 4 2 4 3 6 3 3 3 3 2 3 3 4 4 2 3 5 10 12 12 12 12 12 11 14 15 15 14 15 15 15 13 13 12 12 10
3 3 4 3 5 4 3 2 3 2 4 2 2 3 2 2 3 3 4 3 3 2 2 4 7 9 9 10 9 12 15 16 15 15 16 16 16 16 16 14 12 12 12 11
3 3 4 4 5 4 2 2 2 1 2 3 2 3 2 3 3 4 3 2 2 3 4 3 5 10 10 10 13 14 16 16 16 16 17 17 16 16 16 15 14 12 11 10
Wind_Direction
54 120 139 137 139 139 136 100 114 156 152 171 186 206 191 202 187 190 190 176 182 174 170 181 183 173 174 168 168 194 175 258 239 192 156 193 89 28 352 303 289 297 297 95
83 94 110 123 129 136 105 87 100 168 181 180 179 198 197 195 173 173 177 165 184 158 164 166 177 157 126 154 178 195 183 208 215 171 173 206 81 1 333 305 272 269 282 110
119 115 105 89 64 73 100 133 133 145 204 268 171 177 187 172 187 155 163 167 166 162 164 155 169 144 159 174 212 48 331 226 246 302 4 94 273 350 351 310 280 311 56 82
151 147 135 104 47 13 4 116 142 151 176 194 179 183 184 159 153 153 150 177 173 165 154 158 160 152 145 180 154 192 247 233 206 243 255 117 59 325 55 336 341 5 91 47
155 164 141 123 62 352 346 125 146 184 156 157 183 184 186 176 153 152 174 171 165 163 168 168 165 162 169 169 175 205 205 207 238 234 217 122 151 182 71 89 3 24 310 84
164 175 180 267 311 1 28 102 127 145 148 166 170 184 171 170 142 237 167 153 155 172 140 165 146 164 141 156 173 192 195 224 208 185 135 143 184 166 124 105 30 336 34 0
169 178 209 221 235 304 341 139 155 142 152 169 182 178 179 163 177 155 161 150 162 94 101 94 94 128 151 172 185 217 178 166 237 278 138 213 115 157 125 120 112 30 55 347
164 180 234 225 248 278 300 191 266 160 157 174 178 186 169 154 134 143 144 102 108 150 160 132 134 151 167 190 193 194 228 168 210 234 243 116 161 175 200 208 136 88 13 345
169 166 188 190 229 308 309 333 280 229 157 171 166 156 156 148 131 121 105 121 135 173 177 203 186 181 170 171 164 223 169 210 246 210 261 222 109 86 150 200 199 108 19 349
179 167 164 175 243 306 304 55 334 35 91 81 162 157 160 154 160 137 142 141 160 214 193 202 197 162 167 155 173 185 176 188 222 236 254 102 80 101 145 215 83 59 19 10
170 157 160 169 172 266 360 55 13 84 109 56 76 97 119 138 151 160 144 140 203 191 202 211 164 192 201 153 134 167 179 187 199 237 255 208 22 164 266 99 93 44 45 38
168 166 166 156 153 211 23 83 66 118 84 93 89 70 51 45 22 114 178 329 169 162 218 275 131 215 127 182 176 189 202 356 86 11 53 108 71 81 94 74 111 64 45 36
163 162 164 159 159 221 105 114 108 103 119 123 91 60 55 51 53 77 157 132 104 168 341 135 66 193 247 189 130 131 149 166 120 168 142 109 103 107 93 86 96 69 37 30
157 154 156 151 137 137 128 116 74 136 105 104 82 77 49 34 69 87 70 109 103 127 198 151 149 157 257 142 100 117 101 156 141 91 138 135 142 121 120 111 115 82 49 40
149 135 140 138 129 117 108 90 60 50 356 127 116 95 63 86 90 93 100 117 145 148 111 137 117 76 163 85 144 140 192 131 186 160 156 176 142 147 135 147 129 109 93 55
154 142 141 136 124 116 138 65 46 46 106 123 112 103 97 100 94 85 87 92 83 87 91 69 41 32 297 186 176 97 92 95 155 141 136 116 140 136 109 128 115 90 68 42
142 151 147 123 63 76 62 67 78 78 81 111 125 118 90 96 100 94 90 98 57 58 121 158 131 151 261 186 185 138 127 138 120 123 117 119 150 144 135 135 120 111 83 61
141 137 120 104 86 74 68 40 58 63 119 75 102 101 128 216 155 109 349 110 150 41 39 153 193 135 253 207 122 133 149 140 133 143 72 140 130 135 143 146 155 147 120 108
134 124 108 81 45 70 81 46 49 49 48 96 120 150 142 168 119 119 130 2 69 95 274 116 248 170 207 194 153 159 165 158 155 150 131 138 147 154 163 170 175 165 136 136
129 115 61 73 58 121 1 30 36 25 42 34 105 102 117 172 140 95 96 40 132 161 164 141 214 236 135 170 155 165 161 147 152 153 162 161 163 166 168 172 171 156 144 134
77 69 63 117 53 70 26 71 111 147 99 69 83 130 130 185 149 116 173 144 159 193 152 202 203 225 167 174 152 162 150 160 166 168 165 172 168 167 159 155 148 142 144 135
159 121 116 89 6 102 110 73 80 152 114 130 150 117 110 112 95 109 172 145 183 236 130 195 231 121 144 160 150 155 162 166 158 166 156 160 157 161 159 155 152 148 137 131
100 75 62 1 14 66 182 144 163 146 135 172 158 124 122 146 62 92 136 182 178 131 184 229 339 133 157 155 159 161 160 158 160 151 148 145 139 140 151 136 128 133 137 140
73 98 89 348 132 140 27 38 90 78 119 159 138 120 134 126 103 158 161 107 161 195 225 213 151 159 158 158 165 165 160 142 144 136 136 135 130 119 129 143 149 149 150 150
81 68 85 92 82 57 55 40 113 68 164 133 151 131 142 116 127 203 123 167 206 219 222 105 112 150 159 162 168 161 153 149 154 158 156 154 150 149 148 153 155 156 155 159
72 58 108 123 133 116 115 79 91 136 171 207 196 149 144 145 151 170 205 201 219 147 91 101 131 153 157 161 159 158 161 165 164 165 163 159 160 161 160 160 167 169 170 171
57 77 25 53 58 66 67 41 53 309 192 202 169 142 141 138 194 190 198 223 40 100 112 96 124 162 162 158 155 154 160 163 166 163 165 163 162 159 160 169 179 180 184 183